[[{"header":{"parameterUnit":"m.s-1","parameterCategory":1,"la1":30.2991,"la2":30.254,"lo1":-89.0895,"lo2":-89.0444,"dy":0.0017,"dx":0.0017,"nx":28,"ny":28,"refTime":"2023-04-20T21:00:00:Z","depth":0,"parameterNumber":2,"parameterNumberName":"U-component_of_WINDS"},"data":[0,0,0,0,0,0,0,0,0,0,0,0,0,0,0,0,0,0,0,0,0,0,0,0,0,0,0,0,0,0,0,0,0,0,0,0,0,0,0,0,0,0,0,0,0,0,0,0,0,0,0,0,0,0,0,0,0,0,-1.5434,-1.5434,0,-1.5461,-1.5461,-1.5461,-1.5433,-1.5432,-1.5431,-1.5429,-1.5459,-1.5461,-1.5462,0,0,0,0,0,0,0,0,0,0,0,0,0,-1.5356,-1.5358,-1.5434,-1.5434,-1.5434,-1.5461,-1.5461,-1.5462,-1.5433,-1.5432,-1.543,-1.5429,-1.5458,-1.546,-1.5463,0,0,0,0,0,0,0,0,0,0,0,0,0,-1.5387,-1.5358,-1.5434,-1.5423,-1.5422,-1.5461,-1.5461,-1.5462,-1.5433,-1.5432,-1.543,-1.5428,-1.5457,-1.546,-1.5463,-1.5513,0,0,-1.5471,-1.5472,0,0,0,0,0,0,0,0,-1.5385,-1.539,-1.5424,-1.5424,-1.5423,-1.5442,-1.5444,-1.5479,-1.5434,-1.5429,-1.5429,-1.5428,-1.5455,-1.5457,-1.5466,-1.5514,-1.5516,-1.5471,-1.5473,-1.5474,-1.5475,0,0,0,0,0,0,0,-1.5383,-1.5389,-1.5444,-1.5425,-1.5424,-1.5417,-1.5419,-1.5451,-1.5451,-1.5429,-1.5427,-1.5431,-1.5454,-1.5464,-1.5467,-1.5516,-1.5471,-1.5474,-1.5475,-1.5476,-1.5603,-1.5605,0,0,0,0,0,0,-1.5382,-1.5387,-1.5444,-1.5445,-1.54,-1.542,-1.5422,-1.5437,-1.5451,-1.5451,-1.5432,-1.543,-1.546,-1.5464,-1.5468,-1.5525,-1.5474,-1.5477,-1.5478,-1.5602,-1.5604,-1.5606,0,0,0,0,0,0,-1.5381,-1.5388,-1.5442,-1.5416,-1.5422,-1.5423,-1.544,-1.5439,-1.5449,-1.5453,-1.5453,-1.5442,-1.5459,-1.5464,-1.5501,-1.5526,-1.5478,-1.548,-1.56,-1.5602,-1.5605,-1.5642,0,0,0,0,0,0,-1.5379,-1.5387,-1.5407,-1.5416,-1.5424,-1.5476,-1.5441,-1.5441,-1.5453,-1.545,-1.5462,-1.5463,-1.5458,-1.5497,-1.5504,-1.5529,-1.5483,-1.5597,-1.5601,-1.5604,-1.5639,-1.5646,-1.5652,0,0,0,0,0,-1.5376,-1.5417,-1.5408,-1.5415,-1.5448,-1.5478,-1.5482,-1.5475,-1.5455,-1.5475,-1.5477,-1.5462,-1.5522,-1.5501,-1.5509,-1.5535,-1.5596,-1.56,-1.5604,-1.5636,-1.5645,-1.5652,0,0,0,0,0,0,-1.5413,-1.5419,-1.5408,-1.5454,-1.5465,-1.5473,-1.5497,-1.5485,-1.5503,-1.5499,-1.549,-1.5493,-1.5532,-1.5537,-1.5514,-1.5582,-1.5556,-1.5561,-1.5578,-1.5586,-1.5592,-1.559,-1.5485,0,0,0,0,0,-1.5426,-1.5449,-1.5453,-1.5493,-1.5499,-1.5497,-1.551,-1.5503,-1.5515,-1.552,-1.5525,-1.5537,-1.5558,-1.5572,-1.5592,-1.5639,-1.564,-1.566,-1.5667,-1.5672,-1.5677,-1.57,-1.5708,-1.5618,-1.5618,-1.5618,0,0,-1.5454,-1.546,-1.5476,-1.55,-1.5509,-1.5532,-1.5501,-1.5529,-1.5546,-1.5524,-1.5559,-1.5563,-1.5575,-1.5617,-1.5636,-1.5622,-1.5702,-1.5677,-1.5681,-1.5684,-1.5705,-1.5713,-1.5721,-1.5621,-1.5621,-1.562,0,0,-1.5517,-1.5524,-1.5557,-1.5565,-1.5576,-1.5574,-1.5582,-1.559,-1.5592,-1.5626,-1.5609,-1.5629,-1.5667,-1.5676,-1.5685,-1.5747,-1.5734,-1.5754,-1.5788,-1.581,-1.5817,-1.5823,-1.5844,-1.5852,-1.5759,-1.5759,-1.5759,0,-1.5551,-1.5586,-1.5576,-1.5603,-1.5614,-1.5593,-1.5625,-1.5633,-1.5652,-1.5659,-1.5644,-1.5688,-1.5695,-1.5737,-1.5752,-1.5761,-1.5768,-1.5753,-1.5817,-1.5823,-1.5829,-1.5848,-1.5856,-1.5761,-1.5761,-1.576,-1.576,0,-1.5625,-1.5649,-1.5674,-1.569,-1.5704,-1.5734,-1.5728,-1.5742,-1.5733,-1.5732,-1.5766,-1.5774,-1.5793,-1.5803,-1.5796,-1.5843,-1.5834,-1.5818,-1.5791,-1.584,-1.5858,-1.5865,-1.5764,-1.5763,-1.5763,-1.5762,0,0,-1.5715,-1.5722,-1.5731,-1.5737,-1.5746,-1.5765,-1.5793,-1.5811,-1.5822,-1.5835,-1.5857,-1.5887,-1.5871,-1.5882,-1.5875,-1.5894,-1.594,-1.5875,-1.5875,-1.5886,-1.5991,-1.6003,-1.6012,-1.5931,-1.5933,-1.5934,-1.5989,0,-1.5777,-1.5824,-1.5815,-1.5861,-1.5882,-1.5861,-1.5885,-1.5893,-1.5892,-1.5909,-1.5908,-1.5929,-1.5907,-1.5913,-1.5931,-1.5931,-1.5961,-1.5927,-1.5951,-1.5952,-1.5948,-1.6021,-1.6035,-1.6087,-1.5997,-1.5998,-1.5999,0,-1.5857,-1.5869,-1.5917,-1.592,-1.5929,-1.595,-1.5964,-1.5981,-1.5989,-1.5987,-1.5997,-1.5985,-1.6011,-1.5983,-1.6019,-1.5995,-1.6004,-1.6006,-1.6007,-1.6009,-1.5978,-1.6024,-1.6104,-1.6111,-1.601,-1.6009,-1.6008,0,-1.5915,-1.5945,-1.5976,-1.5982,-1.5987,-1.6002,-1.6005,-1.601,-1.6021,-1.6033,-1.6039,-1.6055,-1.6063,-1.6075,-1.6067,-1.6048,-1.6103,-1.6075,-1.6101,-1.6101,-1.6114,-1.6114,-1.6195,-1.6121,-1.6121,-1.6121,-1.6121,0,-1.5985,-1.6015,-1.6002,-1.6022,-1.6054,-1.6041,-1.6073,-1.6074,-1.6078,-1.6097,-1.608,-1.6097,-1.6086,-1.6103,-1.6097,-1.6126,-1.613,-1.6128,-1.6126,-1.613,-1.613,-1.6135,-1.6131,-1.6123,-1.6122,-1.6122,-1.6122,0,-1.6057,-1.605,-1.6082,-1.6083,-1.6083,-1.6107,-1.6107,-1.6125,-1.6121,-1.6144,-1.6149,-1.6144,-1.6162,-1.6155,-1.6175,-1.6171,-1.6207,-1.6201,-1.6204,-1.6202,-1.6228,-1.6225,-1.6316,-1.6327,-1.6247,-1.6247,-1.6248,0,-1.6102,-1.6124,-1.6126,-1.6136,-1.614,-1.6157,-1.6167,-1.6155,-1.6165,-1.6173,-1.619,-1.6206,-1.6218,-1.6248,-1.6246,-1.626,-1.6253,-1.6284,-1.6256,-1.6257,-1.6252,-1.6251,-1.6252,-1.629,-1.6291,-1.6292,-1.6292,0,-1.6183,-1.6177,-1.6191,-1.6203,-1.6214,-1.6223,-1.6231,-1.6241,-1.6228,-1.6241,-1.6258,-1.6268,-1.6286,-1.6302,-1.6314,-1.6317,-1.6302,-1.6301,-1.6307,-1.6311,-1.6311,-1.631,-1.6219,-1.6299,-1.6299,-1.6298,-1.6298,-1.6297,-1.6242,-1.6259,-1.6262,-1.6277,-1.6281,-1.6288,-1.6303,-1.63,-1.6314,-1.6328,-1.6319,-1.6339,-1.6343,-1.6358,-1.6362,-1.6376,-1.6364,-1.6374,-1.6377,-1.6379,-1.6382,-1.6309,-1.6379,-1.6379,-1.6378,-1.6378,-1.6378,0,-1.632,-1.632,-1.6334,-1.6344,-1.6355,-1.6339,-1.6346,-1.6356,-1.6374,-1.6378,-1.639,-1.6408,-1.6423,-1.642,-1.6433,-1.6445,-1.6439,-1.6449,-1.6448,-1.6448,-1.6393,-1.6385,-1.6454,-1.6454,-1.6454,-1.6454,-1.6454,-1.6454,-1.6363,-1.639,-1.6384,-1.6412,-1.6412,-1.643,-1.6435,-1.644,-1.6444,-1.6465,-1.6476,-1.6473,-1.6475,-1.6487,-1.6499,-1.6497,-1.6502,-1.6515,-1.6511,-1.646,-1.6452,-1.6445,-1.6438,-1.6516,-1.6516,-1.6565,-1.6565,-1.6566]},{"header":{"parameterUnit":"m.s-1","parameterCategory":1,"la1":30.2991,"la2":30.254,"lo1":-89.0895,"lo2":-89.0444,"dy":0.0017,"dx":0.0017,"nx":28,"ny":28,"refTime":"2023-04-20T21:00:00:Z","depth":0,"parameterNumber":3,"parameterNumberName":"V-component_of_WINDS"},"data":[0,0,0,0,0,0,0,0,0,0,0,0,0,0,0,0,0,0,0,0,0,0,0,0,0,0,0,0,0,0,0,0,0,0,0,0,0,0,0,0,0,0,0,0,0,0,0,0,0,0,0,0,0,0,0,0,0,0,-7.8564,-7.8565,0,-7.8674,-7.8675,-7.8676,-7.8566,-7.8562,-7.8558,-7.8554,-7.8661,-7.8668,-7.8675,0,0,0,0,0,0,0,0,0,0,0,0,0,-7.8255,-7.8261,-7.8564,-7.8565,-7.8567,-7.8674,-7.8675,-7.8676,-7.8567,-7.8562,-7.8557,-7.8552,-7.8659,-7.8667,-7.8675,0,0,0,0,0,0,0,0,0,0,0,0,0,-7.8379,-7.8263,-7.8564,-7.8525,-7.8523,-7.8673,-7.8675,-7.8677,-7.8568,-7.8562,-7.8555,-7.8549,-7.8656,-7.8666,-7.8676,-7.8869,0,0,-7.8708,-7.8712,0,0,0,0,0,0,0,0,-7.8372,-7.8391,-7.8529,-7.8528,-7.8526,-7.86,-7.8605,-7.8741,-7.857,-7.8551,-7.8554,-7.8546,-7.8646,-7.8656,-7.8691,-7.8874,-7.8878,-7.8709,-7.8715,-7.8719,-7.8722,0,0,0,0,0,0,0,-7.8364,-7.8385,-7.8607,-7.8532,-7.8529,-7.8501,-7.8511,-7.863,-7.8633,-7.8552,-7.8544,-7.8559,-7.8643,-7.8681,-7.8693,-7.888,-7.8709,-7.8718,-7.8724,-7.8728,-7.9226,-7.9233,0,0,0,0,0,0,-7.836,-7.8379,-7.8604,-7.861,-7.8432,-7.8512,-7.8523,-7.8583,-7.8631,-7.8633,-7.8565,-7.8554,-7.8667,-7.8681,-7.8696,-7.8925,-7.8719,-7.8729,-7.8735,-7.9219,-7.9228,-7.9235,0,0,0,0,0,0,-7.8354,-7.8381,-7.8599,-7.8493,-7.8518,-7.8524,-7.8591,-7.8588,-7.8626,-7.8641,-7.864,-7.8603,-7.8662,-7.8682,-7.8827,-7.8927,-7.8734,-7.8743,-7.9211,-7.9222,-7.9231,-7.9384,0,0,0,0,0,0,-7.8345,-7.838,-7.8454,-7.8495,-7.8524,-7.8731,-7.8597,-7.8595,-7.8645,-7.8631,-7.8677,-7.8678,-7.8659,-7.8812,-7.8837,-7.8938,-7.8751,-7.9202,-7.9216,-7.9228,-7.9371,-7.9399,-7.9423,0,0,0,0,0,-7.8335,-7.8492,-7.8458,-7.8486,-7.8618,-7.8736,-7.8753,-7.8729,-7.8653,-7.8727,-7.8737,-7.8677,-7.8912,-7.8828,-7.8855,-7.8961,-7.9195,-7.9212,-7.9227,-7.9359,-7.9393,-7.9423,0,0,0,0,0,0,-7.846,-7.8496,-7.846,-7.8635,-7.8684,-7.8718,-7.8811,-7.8766,-7.8836,-7.8821,-7.8786,-7.8797,-7.8952,-7.897,-7.8876,-7.9149,-7.9041,-7.9063,-7.9132,-7.9165,-7.9191,-7.9184,-7.876,0,0,0,0,0,-7.8508,-7.8603,-7.8629,-7.8781,-7.8807,-7.8805,-7.8856,-7.8833,-7.8882,-7.8901,-7.8921,-7.8969,-7.9053,-7.911,-7.9188,-7.9372,-7.938,-7.9458,-7.9484,-7.9506,-7.9526,-7.9624,-7.9659,-7.9287,-7.9287,-7.9287,0,0,-7.8608,-7.864,-7.8702,-7.8807,-7.8842,-7.894,-7.8823,-7.8931,-7.9003,-7.8917,-7.9056,-7.9073,-7.9124,-7.929,-7.9363,-7.931,-7.963,-7.9526,-7.9543,-7.9551,-7.9644,-7.9679,-7.9711,-7.9298,-7.9296,-7.9294,0,0,-7.8841,-7.8875,-7.9006,-7.9044,-7.9099,-7.9097,-7.9128,-7.9169,-7.9178,-7.9317,-7.9255,-7.9338,-7.9485,-7.9524,-7.9563,-7.9811,-7.9759,-7.9838,-7.9976,-8.0073,-8.0102,-8.0128,-8.0217,-8.0249,-7.9857,-7.9857,-7.9858,0,-7.8959,-7.9106,-7.9078,-7.9192,-7.924,-7.9168,-7.9299,-7.9336,-7.9414,-7.9448,-7.9387,-7.957,-7.9599,-7.9773,-7.9834,-7.9868,-7.9902,-7.9833,-8.01,-8.0126,-8.0149,-8.0234,-8.0267,-7.9867,-7.9866,-7.9865,-7.9864,0,-7.9247,-7.935,-7.9448,-7.9528,-7.9586,-7.9708,-7.9698,-7.976,-7.9732,-7.9736,-7.9879,-7.9911,-7.9995,-8.0034,-8.0007,-8.0205,-8.017,-8.0106,-7.9996,-8.0195,-8.0273,-8.0306,-7.988,-7.9877,-7.9874,-7.9872,0,0,-7.9563,-7.9626,-7.9662,-7.9698,-7.9754,-7.9832,-7.9949,-8.0034,-8.0088,-8.0144,-8.0241,-8.0367,-8.0308,-8.0352,-8.0329,-8.0414,-8.0609,-8.0338,-8.0339,-8.0388,-8.0829,-8.0878,-8.0916,-8.0574,-8.058,-8.0585,-8.0825,0,-7.9798,-8.0006,-7.9984,-8.0181,-8.0276,-8.0208,-8.0311,-8.0356,-8.0362,-8.0441,-8.0447,-8.0537,-8.0452,-8.0478,-8.0559,-8.0568,-8.0697,-8.055,-8.0664,-8.0669,-8.0655,-8.0957,-8.101,-8.1235,-8.0855,-8.0861,-8.0864,0,-8.0101,-8.017,-8.0377,-8.0419,-8.0457,-8.0551,-8.0626,-8.0703,-8.0752,-8.075,-8.0801,-8.0763,-8.088,-8.0768,-8.0928,-8.0829,-8.0874,-8.0885,-8.0893,-8.0904,-8.0779,-8.0977,-8.1306,-8.134,-8.0913,-8.0909,-8.0905,0,-8.0311,-8.0455,-8.0598,-8.063,-8.0682,-8.075,-8.0774,-8.0816,-8.0869,-8.0934,-8.0967,-8.1044,-8.1087,-8.1147,-8.113,-8.105,-8.1295,-8.1181,-8.1296,-8.1297,-8.1352,-8.1349,-8.1694,-8.1379,-8.1379,-8.1378,-8.1377,0,-8.0577,-8.0707,-8.0694,-8.0782,-8.0924,-8.0898,-8.1039,-8.1054,-8.1093,-8.1182,-8.1127,-8.1211,-8.1183,-8.1265,-8.1252,-8.1387,-8.1406,-8.1408,-8.1403,-8.1414,-8.1414,-8.1443,-8.1428,-8.1387,-8.1385,-8.1383,-8.1382,0,-8.0837,-8.0834,-8.0985,-8.1023,-8.1035,-8.1139,-8.117,-8.1252,-8.1254,-8.1367,-8.1391,-8.1394,-8.1488,-8.1477,-8.1581,-8.1572,-8.174,-8.1716,-8.1725,-8.172,-8.1836,-8.1826,-8.2213,-8.2262,-8.1915,-8.1919,-8.1921,0,-8.1008,-8.1106,-8.1155,-8.1212,-8.1241,-8.1333,-8.1386,-8.1363,-8.142,-8.1484,-8.1558,-8.1647,-8.1717,-8.187,-8.188,-8.1959,-8.1937,-8.2067,-8.1948,-8.1956,-8.194,-8.1935,-8.1945,-8.2091,-8.2095,-8.2098,-8.2101,0,-8.1311,-8.1305,-8.1385,-8.1465,-8.1531,-8.1593,-8.1648,-8.1697,-8.1679,-8.1746,-8.1842,-8.1897,-8.2004,-8.2093,-8.2168,-8.2191,-8.2144,-8.2138,-8.2169,-8.2181,-8.2183,-8.2184,-8.179,-8.2129,-8.2127,-8.2124,-8.2123,-8.2122,-8.1532,-8.1617,-8.1665,-8.1756,-8.1796,-8.1849,-8.1928,-8.1941,-8.2022,-8.2109,-8.2089,-8.2198,-8.2243,-8.2339,-8.237,-8.2453,-8.2406,-8.245,-8.2462,-8.2473,-8.2488,-8.2169,-8.2467,-8.2466,-8.2465,-8.2464,-8.2464,0,-8.1833,-8.1861,-8.1945,-8.2026,-8.2098,-8.2048,-8.2106,-8.2169,-8.2267,-8.2314,-8.2384,-8.2495,-8.2581,-8.2598,-8.268,-8.2744,-8.2724,-8.2766,-8.2761,-8.2768,-8.2525,-8.2491,-8.2781,-8.2781,-8.2781,-8.2781,-8.278,-8.278,-8.1999,-8.214,-8.2139,-8.2299,-8.2324,-8.2433,-8.2471,-8.2519,-8.2556,-8.2683,-8.2756,-8.2767,-8.2801,-8.2885,-8.2962,-8.2964,-8.2997,-8.3048,-8.3043,-8.2816,-8.2784,-8.2754,-8.2722,-8.3056,-8.3056,-8.3278,-8.328,-8.3282]}]]